AEE292 LFPG-LPPT

Flight info

Callsign AEE292
Flight time 2h 10m
Altitude 37000
Route LGL UT176 TERPO DCT ERIGA DCT FUJTI DCT ATLEN DCT ABUPI DCT PESUL DCT XAMAX
Aircraft A20N/M-SDE2E3FGHIRWXY/LB1

Departure

Time 2026-05-07 14:30
Airport Charles de Gaulle International Airport (LFPG)

Arrival

Time 2026-05-07 16:40
Airport Lisbon Humberto Delgado Airport (LPPT)
Time Latitude Longitude Altitude Speed Heading
2026-05-07 14:10 49.01710 2.54089 358 ft 0 kts 209°
2026-05-07 14:21 49.01720 2.54094 365 ft 2 kts 180°
2026-05-07 14:21 49.01737 2.54090 362 ft 2 kts 153°
2026-05-07 14:21 49.01750 2.54075 363 ft 2 kts 133°
2026-05-07 14:22 49.01760 2.54054 364 ft 2 kts 117°
2026-05-07 14:22 49.01765 2.54031 363 ft 2 kts 96°
2026-05-07 14:22 49.01764 2.54014 357 ft 1 kts 60°
2026-05-07 14:22 49.01764 2.54013 357 ft 0 kts 57°
2026-05-07 14:24 49.01773 2.54021 361 ft 7 kts 32°
2026-05-07 14:24 49.01810 2.54120 359 ft 11 kts 82°
2026-05-07 14:25 49.01817 2.54234 365 ft 11 kts 84°
2026-05-07 14:25 49.01820 2.54344 359 ft 10 kts 88°
2026-05-07 14:25 49.01826 2.54447 358 ft 9 kts 84°
2026-05-07 14:25 49.01833 2.54541 361 ft 9 kts 85°
2026-05-07 14:26 49.01838 2.54638 358 ft 9 kts 86°
2026-05-07 14:26 49.01842 2.54737 358 ft 9 kts 86°
2026-05-07 14:26 49.01847 2.54843 362 ft 12 kts 85°
2026-05-07 14:26 49.01857 2.55010 358 ft 19 kts 85°
2026-05-07 14:27 49.01869 2.55213 360 ft 19 kts 85°
2026-05-07 14:27 49.01881 2.55414 358 ft 19 kts 85°
2026-05-07 14:27 49.01888 2.55617 365 ft 19 kts 86°
2026-05-07 14:27 49.01898 2.55818 358 ft 19 kts 82°
2026-05-07 14:28 49.01911 2.56013 358 ft 18 kts 85°
2026-05-07 14:28 49.01921 2.56207 361 ft 18 kts 85°
2026-05-07 14:28 49.01997 2.56324 358 ft 16 kts
2026-05-07 14:28 49.02105 2.56317 360 ft 16 kts 357°
2026-05-07 14:29 49.02212 2.56300 361 ft 15 kts 341°
2026-05-07 14:29 49.02292 2.56213 358 ft 14 kts 317°
2026-05-07 14:29 49.02319 2.56087 364 ft 13 kts 264°
2026-05-07 14:29 49.02305 2.55867 365 ft 45 kts 265°
2026-05-07 14:30 49.02265 2.55038 357 ft 112 kts 265°
2026-05-07 14:30 49.02179 2.53451 423 ft 178 kts 266°
2026-05-07 14:30 49.02080 2.51522 1198 ft 185 kts 266°
2026-05-07 14:30 49.01979 2.49602 2258 ft 181 kts 265°
2026-05-07 14:31 49.01868 2.47591 2890 ft 202 kts 265°
2026-05-07 14:31 49.01744 2.45360 3477 ft 219 kts 265°
2026-05-07 14:31 49.01614 2.42991 4073 ft 234 kts 265°
2026-05-07 14:31 49.01475 2.40486 4787 ft 244 kts 265°
2026-05-07 14:32 49.01327 2.37808 5336 ft 261 kts 265°
2026-05-07 14:32 49.01291 2.35019 6167 ft 266 kts 275°
2026-05-07 14:32 49.01561 2.32202 7081 ft 269 kts 280°
2026-05-07 14:32 49.01921 2.29384 7970 ft 273 kts 281°
2026-05-07 14:33 49.02298 2.26528 8862 ft 277 kts 281°
2026-05-07 14:33 49.02679 2.23622 9765 ft 282 kts 280°
2026-05-07 14:33 49.03063 2.20656 10482 ft 293 kts 280°
2026-05-07 14:33 49.03469 2.17493 10831 ft 316 kts 280°
2026-05-07 14:34 49.03859 2.14079 11150 ft 338 kts 277°
2026-05-07 14:34 49.04102 2.10425 11622 ft 353 kts 274°
2026-05-07 14:34 49.04297 2.06694 12358 ft 359 kts 274°
2026-05-07 14:34 49.04489 2.02873 13224 ft 363 kts 274°
2026-05-07 14:35 49.04682 1.99021 14074 ft 366 kts 274°
2026-05-07 14:35 49.04878 1.95119 14824 ft 370 kts 274°
2026-05-07 14:35 49.05075 1.91176 15563 ft 374 kts 274°
2026-05-07 14:35 49.05274 1.87210 16303 ft 377 kts 274°
2026-05-07 14:36 49.05474 1.83191 17034 ft 381 kts 274°
2026-05-07 14:36 49.05675 1.79132 17770 ft 385 kts 274°
2026-05-07 14:36 49.05876 1.75035 18462 ft 388 kts 273°
2026-05-07 14:36 49.06077 1.70909 19057 ft 392 kts 273°
2026-05-07 14:37 49.06276 1.66805 19642 ft 396 kts 273°
2026-05-07 14:37 49.06130 1.58375 20810 ft 401 kts 263°
2026-05-07 14:37 49.05797 1.54122 21406 ft 405 kts 262°
2026-05-07 14:38 49.05446 1.49844 21979 ft 408 kts 262°
2026-05-07 14:38 49.05091 1.45523 22547 ft 411 kts 262°
2026-05-07 14:38 49.04737 1.41187 23086 ft 414 kts 262°
2026-05-07 14:38 49.04379 1.36809 23623 ft 418 kts 262°
2026-05-07 14:39 49.04020 1.32403 24056 ft 421 kts 262°
2026-05-07 14:39 49.03653 1.27959 24503 ft 423 kts 262°
2026-05-07 14:39 49.03122 1.23588 24926 ft 425 kts 255°
2026-05-07 14:39 49.02163 1.19323 25346 ft 428 kts 246°
2026-05-07 14:40 49.00863 1.15236 25763 ft 430 kts 243°
2026-05-07 14:40 48.99474 1.11191 26177 ft 432 kts 242°
2026-05-07 14:40 48.98062 1.07125 26582 ft 435 kts 242°
2026-05-07 14:40 48.96647 1.03047 26966 ft 437 kts 242°
2026-05-07 14:41 48.95226 0.98945 27348 ft 439 kts 242°
2026-05-07 14:41 48.93797 0.94817 27736 ft 441 kts 242°
2026-05-07 14:41 48.92363 0.90678 28089 ft 444 kts 242°
2026-05-07 14:41 48.90924 0.86528 28479 ft 445 kts 242°
2026-05-07 14:42 48.89500 0.82427 28994 ft 443 kts 242°
2026-05-07 14:42 48.88053 0.78299 29525 ft 441 kts 242°
2026-05-07 14:42 48.86601 0.74196 30019 ft 440 kts 242°
2026-05-07 14:42 48.85152 0.70117 30419 ft 439 kts 241°
2026-05-07 14:43 48.83705 0.66051 30830 ft 437 kts 241°
2026-05-07 14:43 48.82260 0.61993 31217 ft 436 kts 242°
2026-05-07 14:43 48.80816 0.57945 31597 ft 435 kts 241°
2026-05-07 14:43 48.79845 0.55296 31835 ft 435 kts 239°
2026-05-07 14:44 48.78158 0.51503 32205 ft 434 kts 233°
2026-05-07 14:44 48.76287 0.47912 32572 ft 432 kts 231°
2026-05-07 14:44 48.74360 0.44420 32925 ft 432 kts 230°
2026-05-07 14:44 48.72399 0.40966 33261 ft 431 kts 230°
2026-05-07 14:45 48.70438 0.37544 33597 ft 430 kts 229°
2026-05-07 14:45 48.68475 0.34117 33925 ft 429 kts 230°
2026-05-07 14:45 48.66528 0.30707 34206 ft 429 kts 230°
2026-05-07 14:45 48.64581 0.27284 34460 ft 429 kts 230°
2026-05-07 14:46 48.62639 0.23860 34678 ft 429 kts 230°
2026-05-07 14:46 48.60699 0.20438 34901 ft 429 kts 230°
2026-05-07 14:46 48.58757 0.17011 35136 ft 429 kts 230°
2026-05-07 14:46 48.56818 0.13579 35345 ft 430 kts 230°
2026-05-07 14:47 48.54877 0.10133 35550 ft 430 kts 230°
2026-05-07 14:47 48.52943 0.06692 35769 ft 430 kts 230°
2026-05-07 14:47 48.51006 0.03249 35975 ft 430 kts 230°
2026-05-07 14:47 48.49092 -0.00147 36182 ft 430 kts 230°
2026-05-07 14:48 48.47157 -0.03576 36394 ft 430 kts 230°
2026-05-07 14:48 48.45219 -0.07004 36582 ft 430 kts 230°
2026-05-07 14:48 48.43272 -0.10443 36773 ft 430 kts 230°
2026-05-07 14:48 48.41330 -0.13868 36967 ft 431 kts 230°
2026-05-07 14:49 48.37412 -0.20762 37018 ft 435 kts 230°
2026-05-07 14:49 48.33471 -0.27657 37012 ft 433 kts 229°
2026-05-07 14:50 48.29513 -0.34493 37021 ft 433 kts 229°
2026-05-07 14:50 48.25551 -0.41302 37015 ft 433 kts 229°
2026-05-07 14:51 48.21589 -0.48099 37017 ft 432 kts 229°
2026-05-07 14:51 48.17644 -0.54857 37014 ft 432 kts 229°
2026-05-07 14:52 48.13682 -0.61628 37018 ft 432 kts 229°
2026-05-07 14:52 48.09715 -0.68390 37022 ft 432 kts 229°
2026-05-07 14:53 48.05748 -0.75135 37017 ft 432 kts 229°
2026-05-07 14:53 48.01776 -0.81871 37021 ft 432 kts 229°
2026-05-07 14:54 47.97823 -0.88557 37018 ft 432 kts 229°
2026-05-07 14:54 47.93848 -0.95264 37016 ft 431 kts 229°
2026-05-07 14:55 47.89865 -1.01968 37009 ft 431 kts 228°
2026-05-07 14:55 47.85881 -1.08655 37004 ft 431 kts 228°
2026-05-07 14:56 47.81891 -1.15337 37001 ft 431 kts 228°
2026-05-07 14:56 47.77922 -1.21966 37000 ft 430 kts 228°
2026-05-07 14:57 47.73937 -1.28607 36994 ft 430 kts 228°
2026-05-07 14:57 47.69951 -1.35232 36993 ft 430 kts 228°
2026-05-07 14:58 47.65959 -1.41851 36990 ft 430 kts 228°
2026-05-07 14:58 47.61965 -1.48457 36990 ft 430 kts 228°
2026-05-07 14:59 47.57972 -1.55048 36989 ft 430 kts 228°
2026-05-07 14:59 47.53975 -1.61638 36989 ft 430 kts 228°
2026-05-07 15:00 47.49977 -1.68216 36987 ft 430 kts 228°
2026-05-07 15:00 47.45978 -1.74776 36986 ft 429 kts 227°
2026-05-07 15:01 47.41976 -1.81326 36983 ft 429 kts 227°
2026-05-07 15:01 47.37998 -1.87820 36993 ft 429 kts 227°
2026-05-07 15:02 47.33631 -1.93784 36993 ft 429 kts 215°
2026-05-07 15:02 47.28631 -1.98601 36992 ft 430 kts 212°
2026-05-07 15:03 47.23505 -2.03169 36992 ft 430 kts 211°
2026-05-07 15:03 47.18369 -2.07690 36992 ft 430 kts 212°
2026-05-07 15:04 47.13245 -2.12223 36990 ft 430 kts 212°
2026-05-07 15:04 47.08120 -2.16770 36989 ft 430 kts 212°
2026-05-07 15:05 47.03002 -2.21308 36990 ft 430 kts 212°
2026-05-07 15:05 46.97877 -2.25840 36987 ft 430 kts 212°
2026-05-07 15:06 46.92761 -2.30354 36987 ft 430 kts 212°
2026-05-07 15:06 46.87632 -2.34869 36988 ft 430 kts 212°
2026-05-07 15:07 46.82542 -2.39341 36984 ft 430 kts 212°
2026-05-07 15:07 46.77416 -2.43839 36988 ft 430 kts 212°
2026-05-07 15:08 46.72287 -2.48329 36993 ft 430 kts 212°
2026-05-07 15:08 46.67156 -2.52812 36990 ft 430 kts 212°
2026-05-07 15:09 46.62020 -2.57288 36990 ft 430 kts 212°
2026-05-07 15:09 46.56889 -2.61749 36991 ft 430 kts 212°
2026-05-07 15:10 46.51792 -2.66172 36990 ft 429 kts 211°
2026-05-07 15:10 46.46662 -2.70613 36986 ft 429 kts 211°
2026-05-07 15:11 46.41527 -2.75048 36989 ft 429 kts 211°
2026-05-07 15:11 46.36386 -2.79480 36988 ft 430 kts 211°
2026-05-07 15:12 46.31247 -2.83899 36987 ft 430 kts 211°
2026-05-07 15:12 46.26213 -2.88563 36988 ft 429 kts 218°
2026-05-07 15:13 46.21596 -2.93956 36986 ft 429 kts 220°
2026-05-07 15:13 46.17043 -2.99516 36984 ft 429 kts 221°
2026-05-07 15:14 46.12486 -3.05109 36982 ft 429 kts 220°
2026-05-07 15:14 46.07919 -3.10681 36983 ft 429 kts 220°
2026-05-07 15:15 46.03351 -3.16225 36982 ft 429 kts 220°
2026-05-07 15:15 45.98809 -3.21719 36980 ft 430 kts 220°
2026-05-07 15:16 45.94226 -3.27251 36978 ft 430 kts 220°
2026-05-07 15:16 45.89638 -3.32777 36975 ft 430 kts 220°
2026-05-07 15:17 45.85048 -3.38294 36974 ft 430 kts 220°
2026-05-07 15:17 45.80455 -3.43802 36975 ft 431 kts 220°
2026-05-07 15:18 45.75855 -3.49306 36973 ft 431 kts 220°
2026-05-07 15:18 45.71244 -3.54811 36974 ft 431 kts 220°
2026-05-07 15:19 45.66634 -3.60303 36970 ft 432 kts 220°
2026-05-07 15:19 45.62007 -3.65803 36970 ft 432 kts 220°
2026-05-07 15:20 45.57412 -3.71251 36967 ft 432 kts 220°
2026-05-07 15:20 45.52781 -3.76732 36968 ft 433 kts 220°
2026-05-07 15:21 45.48138 -3.82214 36967 ft 434 kts 220°
2026-05-07 15:21 45.43481 -3.87701 36963 ft 434 kts 220°
2026-05-07 15:22 45.38817 -3.93183 36964 ft 434 kts 220°
2026-05-07 15:22 45.34152 -3.98655 36959 ft 435 kts 220°
2026-05-07 15:23 45.29481 -4.04122 36961 ft 435 kts 220°
2026-05-07 15:23 45.24803 -4.09585 36956 ft 435 kts 220°
2026-05-07 15:24 45.20116 -4.15046 36959 ft 436 kts 220°
2026-05-07 15:24 45.15426 -4.20499 36952 ft 436 kts 220°
2026-05-07 15:25 45.10728 -4.25948 36954 ft 436 kts 220°
2026-05-07 15:25 45.06057 -4.31355 36944 ft 437 kts 220°
2026-05-07 15:26 45.01350 -4.36793 36949 ft 437 kts 220°
2026-05-07 15:26 44.96637 -4.42223 36947 ft 437 kts 220°
2026-05-07 15:27 44.91916 -4.47652 36941 ft 438 kts 220°
2026-05-07 15:27 44.87187 -4.53079 36944 ft 438 kts 220°
2026-05-07 15:28 44.82455 -4.58497 36946 ft 439 kts 220°
2026-05-07 15:28 44.77733 -4.63891 36936 ft 439 kts 220°
2026-05-07 15:29 44.72954 -4.69340 36934 ft 439 kts 220°
2026-05-07 15:29 44.68232 -4.74711 36931 ft 440 kts 220°
2026-05-07 15:30 44.63475 -4.80110 36936 ft 440 kts 220°
2026-05-07 15:30 44.58703 -4.85514 36933 ft 440 kts 220°
2026-05-07 15:31 44.54738 -4.89996 36926 ft 441 kts 220°
2026-05-07 15:31 44.49855 -4.95222 36925 ft 442 kts 216°
2026-05-07 15:32 44.44683 -4.99909 36914 ft 443 kts 214°
2026-05-07 15:32 44.39479 -5.04454 36914 ft 443 kts 214°
2026-05-07 15:33 44.34234 -5.09001 36911 ft 444 kts 214°
2026-05-07 15:33 44.28988 -5.13553 36912 ft 444 kts 214°
2026-05-07 15:34 44.23748 -5.18101 36905 ft 444 kts 214°
2026-05-07 15:34 44.18498 -5.22651 36906 ft 444 kts 214°
2026-05-07 15:35 44.13271 -5.27171 36904 ft 445 kts 214°
2026-05-07 15:35 44.08007 -5.31713 36902 ft 445 kts 214°
2026-05-07 15:36 44.02743 -5.36246 36904 ft 445 kts 214°
2026-05-07 15:36 43.97454 -5.40790 36895 ft 446 kts 214°
2026-05-07 15:37 43.92170 -5.45320 36894 ft 446 kts 214°
2026-05-07 15:37 43.86913 -5.49819 36886 ft 447 kts 214°
2026-05-07 15:38 43.81618 -5.54339 36882 ft 447 kts 214°
2026-05-07 15:38 43.76313 -5.58858 36884 ft 447 kts 214°
2026-05-07 15:39 43.71011 -5.63366 36875 ft 447 kts 214°
2026-05-07 15:39 43.65709 -5.67864 36875 ft 447 kts 214°
2026-05-07 15:40 43.60403 -5.72356 36881 ft 447 kts 214°
2026-05-07 15:40 43.55131 -5.76810 36877 ft 447 kts 214°
2026-05-07 15:41 43.49825 -5.81283 36879 ft 447 kts 214°
2026-05-07 15:41 43.44512 -5.85752 36881 ft 447 kts 214°
2026-05-07 15:42 43.39191 -5.90221 36879 ft 448 kts 214°
2026-05-07 15:42 43.33871 -5.94678 36874 ft 447 kts 214°
2026-05-07 15:43 43.28548 -5.99128 36872 ft 447 kts 214°
2026-05-07 15:43 43.23266 -6.03536 36860 ft 447 kts 214°
2026-05-07 15:44 43.17945 -6.07967 36864 ft 447 kts 214°
2026-05-07 15:44 43.12620 -6.12391 36860 ft 447 kts 214°
2026-05-07 15:45 43.07298 -6.16803 36855 ft 447 kts 214°
2026-05-07 15:45 43.01979 -6.21204 36852 ft 446 kts 214°
2026-05-07 15:46 42.94040 -6.27758 36853 ft 446 kts 214°
2026-05-07 15:47 42.88720 -6.32139 36851 ft 446 kts 214°
2026-05-07 15:47 42.83417 -6.36496 36845 ft 446 kts 214°
2026-05-07 15:48 42.78099 -6.40857 36840 ft 445 kts 215°
2026-05-07 15:48 42.72777 -6.45211 36836 ft 445 kts 215°
2026-05-07 15:49 42.67501 -6.49519 36836 ft 445 kts 215°
2026-05-07 15:49 42.62195 -6.53845 36835 ft 444 kts 215°
2026-05-07 15:50 42.56886 -6.58164 36834 ft 444 kts 215°
2026-05-07 15:50 42.51591 -6.62461 36835 ft 444 kts 215°
2026-05-07 15:51 42.46283 -6.66761 36834 ft 443 kts 215°
2026-05-07 15:51 42.40991 -6.71039 36834 ft 443 kts 215°
2026-05-07 15:52 42.35711 -6.75299 36832 ft 442 kts 215°
2026-05-07 15:52 42.30427 -6.79555 36834 ft 441 kts 215°
2026-05-07 15:53 42.25149 -6.83797 36848 ft 441 kts 216°
2026-05-07 15:53 42.19885 -6.88019 36839 ft 440 kts 216°
2026-05-07 15:54 42.14644 -6.92214 36841 ft 440 kts 216°
2026-05-07 15:54 42.09392 -6.96411 36834 ft 438 kts 216°
2026-05-07 15:55 42.04143 -7.00596 36847 ft 437 kts 216°
2026-05-07 15:55 41.98909 -7.04763 36844 ft 437 kts 216°
2026-05-07 15:56 41.93682 -7.08916 36840 ft 436 kts 216°
2026-05-07 15:56 41.88490 -7.13032 36848 ft 435 kts 216°
2026-05-07 15:57 41.83247 -7.17181 36838 ft 434 kts 216°
2026-05-07 15:57 41.78076 -7.21265 36838 ft 433 kts 216°
2026-05-07 15:58 41.73101 -7.25709 36844 ft 428 kts 222°
2026-05-07 15:58 41.68358 -7.30489 36839 ft 426 kts 223°
2026-05-07 15:59 41.63659 -7.35326 36841 ft 425 kts 223°
2026-05-07 15:59 41.58976 -7.40141 36842 ft 424 kts 223°
2026-05-07 16:00 41.54302 -7.44924 36838 ft 424 kts 223°
2026-05-07 16:00 41.49645 -7.49671 36847 ft 423 kts 223°
2026-05-07 16:01 41.44967 -7.54430 36841 ft 423 kts 223°
2026-05-07 16:01 41.40293 -7.59176 36845 ft 422 kts 223°
2026-05-07 16:02 41.35624 -7.63908 36848 ft 421 kts 223°
2026-05-07 16:02 41.30962 -7.68624 36855 ft 422 kts 222°
2026-05-07 16:03 41.26285 -7.73348 36858 ft 422 kts 222°
2026-05-07 16:03 41.21611 -7.78060 36853 ft 421 kts 222°
2026-05-07 16:04 41.16934 -7.82766 36858 ft 422 kts 222°
2026-05-07 16:04 41.12250 -7.87469 36868 ft 422 kts 222°
2026-05-07 16:05 41.07607 -7.92123 36855 ft 421 kts 222°
2026-05-07 16:05 41.02927 -7.96807 36860 ft 421 kts 222°
2026-05-07 16:06 40.98246 -8.01482 36858 ft 421 kts 222°
2026-05-07 16:06 40.93559 -8.06155 36860 ft 421 kts 222°
2026-05-07 16:07 40.88789 -8.10663 36870 ft 425 kts 215°
2026-05-07 16:07 40.83356 -8.13903 36869 ft 431 kts 207°
2026-05-07 16:08 40.77780 -8.16715 36867 ft 431 kts 206°
2026-05-07 16:08 40.72165 -8.19520 36600 ft 431 kts 206°
2026-05-07 16:08 40.69362 -8.20918 36092 ft 431 kts 207°
2026-05-07 16:09 40.66555 -8.22317 35586 ft 431 kts 207°
2026-05-07 16:09 40.63751 -8.23713 35098 ft 431 kts 207°
2026-05-07 16:09 40.60952 -8.25105 34609 ft 430 kts 207°
2026-05-07 16:09 40.58148 -8.26500 34131 ft 430 kts 207°
2026-05-07 16:10 40.55345 -8.27892 33618 ft 430 kts 207°
2026-05-07 16:10 40.52553 -8.29278 33076 ft 430 kts 207°
2026-05-07 16:10 40.49749 -8.30670 32542 ft 432 kts 206°
2026-05-07 16:10 40.46933 -8.32067 32004 ft 434 kts 206°
2026-05-07 16:11 40.44104 -8.33469 31507 ft 436 kts 206°
2026-05-07 16:11 40.41247 -8.34882 31001 ft 438 kts 205°
2026-05-07 16:11 40.38392 -8.36293 30506 ft 440 kts 205°
2026-05-07 16:11 40.35533 -8.37703 30018 ft 436 kts 205°
2026-05-07 16:12 40.32710 -8.39092 29464 ft 430 kts 205°
2026-05-07 16:12 40.29960 -8.40445 29010 ft 423 kts 205°
2026-05-07 16:12 40.27246 -8.41777 28897 ft 411 kts 205°
2026-05-07 16:13 40.21893 -8.44412 28886 ft 411 kts 205°
2026-05-07 16:13 40.16538 -8.47044 28888 ft 411 kts 205°
2026-05-07 16:14 40.11176 -8.49672 28611 ft 410 kts 205°
2026-05-07 16:14 40.08511 -8.50976 28097 ft 407 kts 205°
2026-05-07 16:14 40.05870 -8.52251 27555 ft 404 kts 202°
2026-05-07 16:14 40.03145 -8.53168 27039 ft 405 kts 193°
2026-05-07 16:15 40.00330 -8.53385 26535 ft 406 kts 183°
2026-05-07 16:15 39.97514 -8.53212 26039 ft 404 kts 180°
2026-05-07 16:15 39.94715 -8.52966 25542 ft 401 kts 180°
2026-05-07 16:15 39.91953 -8.52718 25061 ft 397 kts 179°
2026-05-07 16:16 39.89211 -8.52478 24612 ft 393 kts 179°
2026-05-07 16:16 39.86536 -8.52247 24261 ft 386 kts 179°
2026-05-07 16:16 39.83877 -8.52021 23913 ft 380 kts 179°
2026-05-07 16:16 39.81256 -8.51801 23570 ft 374 kts 179°
2026-05-07 16:17 39.78679 -8.51597 23180 ft 368 kts 181°
2026-05-07 16:17 39.76165 -8.51830 22773 ft 358 kts 195°
2026-05-07 16:17 39.73862 -8.52929 22364 ft 349 kts 209°
2026-05-07 16:17 39.71772 -8.54470 21985 ft 343 kts 213°
2026-05-07 16:18 39.69744 -8.56081 21594 ft 339 kts 213°
2026-05-07 16:18 39.67751 -8.57675 21213 ft 334 kts 213°
2026-05-07 16:18 39.65782 -8.59243 20832 ft 331 kts 213°
2026-05-07 16:18 39.63825 -8.60793 20459 ft 328 kts 213°
2026-05-07 16:19 39.62535 -8.61811 20212 ft 327 kts 213°
2026-05-07 16:19 39.60599 -8.63337 19844 ft 325 kts 213°
2026-05-07 16:19 39.58664 -8.64859 19472 ft 324 kts 213°
2026-05-07 16:19 39.56118 -8.66858 19008 ft 321 kts 213°
2026-05-07 16:20 39.54832 -8.67867 18767 ft 320 kts 213°
2026-05-07 16:20 39.52930 -8.69358 18415 ft 318 kts 212°
2026-05-07 16:20 39.51040 -8.70839 18044 ft 316 kts 212°
2026-05-07 16:20 39.49161 -8.72310 17645 ft 315 kts 212°
2026-05-07 16:21 39.47297 -8.73771 17249 ft 312 kts 213°
2026-05-07 16:21 39.45527 -8.75382 16855 ft 310 kts 216°
2026-05-07 16:21 39.43773 -8.76985 16498 ft 307 kts 216°
2026-05-07 16:21 39.42035 -8.78585 16170 ft 306 kts 216°
2026-05-07 16:22 39.40312 -8.80186 15839 ft 304 kts 216°
2026-05-07 16:22 39.38599 -8.81787 15510 ft 303 kts 216°
2026-05-07 16:22 39.36892 -8.83387 15198 ft 302 kts 216°
2026-05-07 16:22 39.35200 -8.84977 14879 ft 301 kts 216°
2026-05-07 16:23 39.33506 -8.86570 14566 ft 300 kts 216°
2026-05-07 16:23 39.31825 -8.88150 14255 ft 299 kts 216°
2026-05-07 16:23 39.30165 -8.89710 13946 ft 298 kts 216°
2026-05-07 16:23 39.28492 -8.91282 13634 ft 297 kts 216°
2026-05-07 16:24 39.26823 -8.92848 13289 ft 296 kts 215°
2026-05-07 16:24 39.25163 -8.94406 12941 ft 294 kts 215°
2026-05-07 16:24 39.23512 -8.95954 12609 ft 293 kts 215°
2026-05-07 16:24 39.21863 -8.97499 12276 ft 291 kts 215°
2026-05-07 16:25 39.20230 -8.99029 11937 ft 290 kts 215°
2026-05-07 16:25 39.18600 -9.00555 11611 ft 288 kts 215°
2026-05-07 16:25 39.16984 -9.02068 11286 ft 287 kts 215°
2026-05-07 16:25 39.15370 -9.03577 10969 ft 285 kts 215°
2026-05-07 16:26 39.13762 -9.05079 10646 ft 284 kts 215°
2026-05-07 16:26 39.12168 -9.06568 10328 ft 283 kts 215°
2026-05-07 16:26 39.10575 -9.08055 10008 ft 281 kts 215°
2026-05-07 16:26 39.08996 -9.09529 9698 ft 280 kts 215°
2026-05-07 16:27 39.07422 -9.10996 9353 ft 279 kts 216°
2026-05-07 16:27 39.05852 -9.12459 9008 ft 278 kts 215°
2026-05-07 16:27 39.04290 -9.13914 8671 ft 277 kts 215°
2026-05-07 16:27 39.02734 -9.15363 8338 ft 276 kts 215°
2026-05-07 16:28 39.01184 -9.16805 8020 ft 274 kts 215°
2026-05-07 16:28 38.99658 -9.18220 7911 ft 273 kts 214°
2026-05-07 16:28 38.97992 -9.19368 7909 ft 273 kts 200°
2026-05-07 16:28 38.96178 -9.20109 7776 ft 273 kts 195°
2026-05-07 16:29 38.94334 -9.20708 7458 ft 273 kts 193°
2026-05-07 16:29 38.92490 -9.21258 7181 ft 272 kts 192°
2026-05-07 16:29 38.90644 -9.21793 6883 ft 271 kts 192°
2026-05-07 16:29 38.88811 -9.22318 6595 ft 270 kts 192°
2026-05-07 16:30 38.86984 -9.22838 6305 ft 269 kts 192°
2026-05-07 16:30 38.85158 -9.23356 5997 ft 268 kts 192°
2026-05-07 16:30 38.83357 -9.23866 5738 ft 261 kts 192°
2026-05-07 16:30 38.81612 -9.24359 5487 ft 254 kts 192°
2026-05-07 16:31 38.79908 -9.24840 5235 ft 247 kts 193°
2026-05-07 16:31 38.78247 -9.25309 4980 ft 242 kts 193°
2026-05-07 16:31 38.76619 -9.25768 4707 ft 237 kts 193°
2026-05-07 16:31 38.75016 -9.26220 4451 ft 235 kts 194°
2026-05-07 16:32 38.73416 -9.26672 4193 ft 235 kts 194°
2026-05-07 16:32 38.71833 -9.27118 4015 ft 228 kts 194°
2026-05-07 16:32 38.70333 -9.27539 4032 ft 215 kts 195°
2026-05-07 16:32 38.68877 -9.27948 4014 ft 215 kts 195°
2026-05-07 16:33 38.67415 -9.28361 3994 ft 212 kts 195°
2026-05-07 16:33 38.66027 -9.28750 4010 ft 197 kts 195°
2026-05-07 16:33 38.64697 -9.29125 3998 ft 196 kts 195°
2026-05-07 16:33 38.63384 -9.29497 4001 ft 196 kts 195°
2026-05-07 16:34 38.62036 -9.29877 4001 ft 196 kts 194°
2026-05-07 16:34 38.60720 -9.30237 4003 ft 196 kts 192°
2026-05-07 16:34 38.59361 -9.30163 3997 ft 199 kts 161°
2026-05-07 16:34 38.58307 -9.29068 4001 ft 198 kts 118°
2026-05-07 16:35 38.58081 -9.27386 4006 ft 194 kts 78°
2026-05-07 16:35 38.58482 -9.25737 4003 ft 195 kts 65°
2026-05-07 16:35 38.59153 -9.24253 4002 ft 192 kts 45°
2026-05-07 16:35 38.60185 -9.23210 3867 ft 188 kts 25°
2026-05-07 16:36 38.61368 -9.22523 3630 ft 187 kts 19°
2026-05-07 16:36 38.62581 -9.21911 3395 ft 188 kts 19°
2026-05-07 16:36 38.63813 -9.21250 3072 ft 194 kts 19°
2026-05-07 16:36 38.65043 -9.20587 2812 ft 189 kts 18°
2026-05-07 16:37 38.66240 -9.19949 2567 ft 181 kts 18°
2026-05-07 16:37 38.67354 -9.19355 2355 ft 170 kts 18°
2026-05-07 16:37 38.68433 -9.18778 2104 ft 161 kts 16°
2026-05-07 16:37 38.69429 -9.18247 1892 ft 156 kts 16°
2026-05-07 16:38 38.70429 -9.17713 1692 ft 156 kts 16°
2026-05-07 16:38 38.71433 -9.17175 1461 ft 156 kts 17°
2026-05-07 16:38 38.72429 -9.16642 1271 ft 153 kts 17°
2026-05-07 16:38 38.73414 -9.16114 1072 ft 151 kts 17°
2026-05-07 16:39 38.74346 -9.15616 870 ft 138 kts 17°
2026-05-07 16:39 38.75219 -9.15149 699 ft 136 kts 15°
2026-05-07 16:39 38.76088 -9.14684 512 ft 135 kts 16°
2026-05-07 16:39 38.76952 -9.14222 363 ft 132 kts 18°
2026-05-07 16:40 38.77648 -9.13856 353 ft 70 kts 24°
2026-05-07 16:40 38.78016 -9.13655 357 ft 54 kts 21°
2026-05-07 16:40 38.78275 -9.13492 356 ft 29 kts 44°
2026-05-07 16:40 38.78368 -9.13333 353 ft 15 kts 83°
2026-05-07 16:41 38.78368 -9.13303 351 ft 1 kts 101°
2026-05-07 16:41 38.78351 -9.13274 358 ft 7 kts 149°
2026-05-07 16:41 38.78305 -9.13272 354 ft 6 kts 191°
2026-05-07 16:41 38.78263 -9.13286 352 ft 6 kts 202°
2026-05-07 16:42 38.78225 -9.13306 357 ft 6 kts 202°
2026-05-07 16:42 38.78186 -9.13326 352 ft 6 kts 202°
2026-05-07 16:42 38.78146 -9.13347 355 ft 6 kts 202°
2026-05-07 16:42 38.78106 -9.13368 356 ft 6 kts 202°
2026-05-07 16:43 38.78015 -9.13398 350 ft 21 kts 187°
2026-05-07 16:43 38.77870 -9.13376 350 ft 21 kts 169°
2026-05-07 16:43 38.77725 -9.13337 350 ft 21 kts 168°
2026-05-07 16:43 38.77580 -9.13318 356 ft 20 kts 172°
2026-05-07 16:44 38.77442 -9.13282 350 ft 20 kts 167°
2026-05-07 16:44 38.77305 -9.13252 353 ft 20 kts 173°
2026-05-07 16:44 38.77173 -9.13217 354 ft 19 kts 169°
2026-05-07 16:44 38.77044 -9.13183 350 ft 18 kts 169°
2026-05-07 16:45 38.76966 -9.13157 358 ft 0 kts 135°
2026-05-07 16:45 38.76971 -9.13131 350 ft 6 kts 75°
2026-05-07 16:45 38.76980 -9.13089 352 ft 0 kts 78°